Regional Weather Roundup
Issued by NWS

Current Version | Previous Version | Text Only | Print | Product List | Glossary On
Versions: 1 2 3 4 5 6 7 8 9 10 11 12 13 14 15 16 17 18 19 20 21 22 23 24 25 26 27 28 29 30 31 32 33 34 35 36 37 38 39 40 41 42 43 44 45 46 47 48 49 50
140
ASUS44 KOUN 191810
RWROK

WEATHER ROUNDUP FOR OKLAHOMA
NATIONAL WEATHER SERVICE NORMAN OK
100 PM CDT THU OCT 19 2017

NOTE: "FAIR" INDICATES FEW OR NO CLOUDS BELOW 12,000 FEET WITH NO
      SIGNIFICANT WEATHER AND/OR OBSTRUCTIONS TO VISIBILITY.

OKZ001>007-009>012-014-015-017-191900-
NORTHWEST OKLAHOMA AND THE PANHANDLE

CITY           SKY/WX    TMP DP  RH WIND       PRES   REMARKS
GAGE           FAIR      73  46  38 S15       30.09F
6HR MIN TEMP:  48; 6HR MAX TEMP:  73;

GUYMON         FAIR      72  51  47 S7        30.05F
ENID/WOODRING  MOSUNNY   75  48  38 S14       30.08F
$$

OKZ016-021>023-033>039-044-045-191900-
SOUTHWEST OKLAHOMA

CITY           SKY/WX    TMP DP  RH WIND       PRES   REMARKS
LAWTON/REGL    FAIR      75  54  47 S12       30.13F
6HR MIN TEMP:  51; 6HR MAX TEMP:  75;

LAWTON/FT SILL FAIR      75  57  52 S12       30.12F
FREDERICK      FAIR      77  53  43 S12       30.09F
CLINTON        FAIR      72  48  42 S17       30.12F
HOBART         FAIR      77  50  38 S18       30.12F
ALTUS AFB      PTSUNNY   75  49  39 S15       30.11F
$$

OKZ018>020-024>031-191900-
CENTRAL OKLAHOMA

CITY           SKY/WX    TMP DP  RH WIND       PRES   REMARKS
OKLAHOMA CITY  PTSUNNY   71  51  49 S15       30.14F
6HR MIN TEMP:  52; 6HR MAX TEMP:  71;

OKC/WILEY POST FAIR      75  52  44 S15G25    30.13F
OKC/TINKER AFB FAIR      72  52  49 S14       30.14F
STILLWATER     FAIR      76  51  41 S12       30.13F
GUTHRIE        FAIR      76  50  40 S12       30.12F
$$

OKZ008-013-054>072-191900-
NORTHEAST OKLAHOMA

CITY           SKY/WX    TMP DP  RH WIND       PRES   REMARKS
TULSA          CLOUDY    74  55  51 S9        30.14F
6HR MIN TEMP:  50; 6HR MAX TEMP:  74;

TULSA/JONES    FAIR      76  52  43 S10       30.15F
PONCA CITY     FAIR      76  50  40 S8        30.11F
BARTLESVILLE   FAIR      78  51  38 SW13G20   30.14F
MUSKOGEE       FAIR      75  57  53 SW9       30.18F
$$

OKZ032-040>043-046>053-073>077-191900-
SOUTH CENTRAL/SOUTHEAST OKLAHOMA

CITY           SKY/WX    TMP DP  RH WIND       PRES   REMARKS
ARDMORE/DWNTWN FAIR      75  52  43 SW9       30.15F
MCALESTER      FAIR      74  60  61 SW9       30.18F HAZE
$$





USA.gov is the U.S. government's official web portal to all federal, state and local government web resources and services.